This is the latest recevied weather packets stored in our database for station/object SV1RVP-13. If no packets are shown the sender has not sent any weather packets the latest 10 day(s).
| Time | Temp. | Humidity | Pressure | Rain* | Wind** | Luminosity | Snow |
|---|---|---|---|---|---|---|---|
| 1778168909 | 22.78° C | 43% | 1017.2 hPa | 0 mm | - | - | - |
| 1778168389 | 22.78° C | 45% | 1017.2 hPa | 0 mm | - | - | - |
| 1778168332 | 22.78° C | 45% | 1017.2 hPa | 0 mm | - | - | - |
| 1778167910 | 22.78° C | 45% | 1017.4 hPa | 0 mm | - | - | - |
| 1778167723 | 22.78° C | 45% | 1017.4 hPa | 0 mm | - | - | - |
| 1778167534 | 22.78° C | 46% | 1017.6 hPa | 0 mm | - | - | - |
| 1778167121 | 22.78° C | 46% | 1017.6 hPa | 0 mm | - | - | - |
| 1778166534 | 22.78° C | 47% | 1017.5 hPa | 0 mm | - | - | - |
| 1778165933 | 22.78° C | 47% | 1017.5 hPa | 0 mm | - | - | - |
| 1778165320 | 22.78° C | 46% | 1017.5 hPa | 0 mm | - | - | - |
| 1778164709 | 23.33° C | 46% | 1017.7 hPa | 0 mm | - | - | - |
| 1778164120 | 23.33° C | 45% | 1017.6 hPa | 0 mm | - | - | - |
| 1778163525 | 23.33° C | 44% | 1017.5 hPa | 0 mm | - | - | - |
| 1778162932 | 23.33° C | 43% | 1017.4 hPa | 0 mm | - | - | - |
| 1778162337 | 23.89° C | 43% | 1017.2 hPa | 0 mm | - | - | - |
| 1778161374 | 23.89° C | 42% | 1017.3 hPa | 0 mm | - | - | - |
| 1778160584 | 24.44° C | 40% | 1017 hPa | 0 mm | - | - | - |
| 1778159937 | 24.44° C | 43% | 1017 hPa | 0 mm | - | - | - |
| 1778159317 | 23.89° C | 44% | 1017.1 hPa | 0 mm | - | - | - |
| 1778158711 | 23.89° C | 47% | 1017.2 hPa | 0 mm | - | - | - |
| 1778158129 | 23.89° C | 47% | 1017.4 hPa | 0 mm | - | - | - |
| 1778157521 | 23.89° C | 49% | 1017.5 hPa | 0 mm | - | - | - |
| 1778156921 | 23.89° C | 49% | 1017.7 hPa | 0 mm | - | - | - |
| 1778156320 | 23.89° C | 53% | 1017.8 hPa | 0 mm | - | - | - |
| 1778155731 | 23.89° C | 50% | 1017.8 hPa | 0 mm | - | - | - |
* Rain since midnight (hover to see other rain measurements)
** Current wind speed in m/s (hover to see current wind gust speed)